Time,TemperatureF,DewpointF,PressureIn,WindDirection,WindDirectionDegrees,WindSpeedMPH,WindSpeedGustMPH,Humidity,HourlyPrecipIn,Conditions,Clouds,dailyrainin,SoftwareType,DateUTC
2013-07-15 00:02:00,59.5,55.3,30.20,SW,236,3.0,5.0,86,0.00,,,0.00,WeatherCatV1.20B785,2013-07-14 23:02:00,
2013-07-15 00:07:00,59.5,55.3,30.19,WSW,240,3.0,6.0,86,0.00,,,0.00,WeatherCatV1.20B785,2013-07-14 23:07:00,
2013-07-15 00:12:00,59.6,55.4,30.19,West,277,3.0,4.0,86,0.00,,,0.00,WeatherCatV1.20B785,2013-07-14 23:12:00,
2013-07-15 00:17:00,59.6,55.4,30.19,West,271,3.0,5.0,86,0.00,,,0.00,WeatherCatV1.20B785,2013-07-14 23:17:00,
2013-07-15 00:22:00,59.6,55.4,30.19,WSW,243,3.0,5.0,86,0.00,,,0.00,WeatherCatV1.20B785,2013-07-14 23:22:00,
2013-07-15 00:27:00,59.6,55.7,30.19,SW,225,3.0,5.0,87,0.00,,,0.00,WeatherCatV1.20B785,2013-07-14 23:27:00,
2013-07-15 00:32:00,59.5,55.6,30.19,SW,234,3.0,7.0,87,0.00,,,0.00,WeatherCatV1.20B785,2013-07-14 23:32:00,
2013-07-15 00:37:00,59.4,55.5,30.19,WSW,253,5.0,7.0,87,0.00,,,0.00,WeatherCatV1.20B785,2013-07-14 23:37:00,
2013-07-15 00:42:00,59.4,55.8,30.19,WSW,250,3.0,5.0,88,0.00,,,0.00,WeatherCatV1.20B785,2013-07-14 23:42:00,
2013-07-15 00:47:00,59.5,55.9,30.19,WSW,245,4.0,4.0,88,0.00,,,0.00,WeatherCatV1.20B785,2013-07-14 23:47:00,
2013-07-15 00:52:00,59.5,55.9,30.19,West,278,3.0,4.0,88,0.00,,,0.00,WeatherCatV1.20B785,2013-07-14 23:52:00,
2013-07-15 00:57:00,59.6,56.0,30.19,WSW,246,4.0,5.0,88,0.00,,,0.00,WeatherCatV1.20B785,2013-07-14 23:57:00,
2013-07-15 01:02:00,59.7,56.1,30.19,West,280,3.0,5.0,88,0.00,,,0.00,WeatherCatV1.20B785,2013-07-15 00:02:00,
2013-07-15 01:07:00,59.8,56.2,30.19,WSW,250,4.0,5.0,88,0.00,,,0.00,WeatherCatV1.20B785,2013-07-15 00:07:00,
2013-07-15 01:12:00,59.9,56.3,30.19,WNW,284,3.0,6.0,88,0.00,,,0.00,WeatherCatV1.20B785,2013-07-15 00:12:00,
2013-07-15 01:17:00,59.9,56.3,30.19,WNW,284,5.0,5.0,88,0.00,,,0.00,WeatherCatV1.20B785,2013-07-15 00:17:00,
2013-07-15 01:22:00,59.9,56.3,30.19,West,264,3.0,5.0,88,0.00,,,0.00,WeatherCatV1.20B785,2013-07-15 00:22:00,
2013-07-15 01:27:00,59.9,56.3,30.19,WNW,283,1.0,2.0,88,0.00,,,0.00,WeatherCatV1.20B785,2013-07-15 00:27:00,
2013-07-15 01:32:00,59.9,56.3,30.19,WSW,257,2.0,2.0,88,0.00,,,0.00,WeatherCatV1.20B785,2013-07-15 00:32:00,
2013-07-15 01:37:00,59.9,56.3,30.19,West,276,2.0,4.0,88,0.00,,,0.00,WeatherCatV1.20B785,2013-07-15 00:37:00,
2013-07-15 01:42:00,59.9,56.0,30.19,WNW,287,2.0,2.0,87,0.00,,,0.00,WeatherCatV1.20B785,2013-07-15 00:42:00,
2013-07-15 01:47:00,60.0,56.1,30.19,WSW,240,2.0,4.0,87,0.00,,,0.00,WeatherCatV1.20B785,2013-07-15 00:47:00,
2013-07-15 01:52:00,59.9,56.0,30.19,WSW,256,2.0,3.0,87,0.00,,,0.00,WeatherCatV1.20B785,2013-07-15 00:52:00,
2013-07-15 01:57:00,60.0,56.1,30.19,West,269,3.0,4.0,87,0.00,,,0.00,WeatherCatV1.20B785,2013-07-15 00:57:00,
2013-07-15 02:02:00,60.0,56.4,30.19,WNW,298,1.0,2.0,88,0.00,,,0.00,WeatherCatV1.20B785,2013-07-15 01:02:00,
2013-07-15 02:07:00,59.8,56.2,30.19,West,264,2.0,3.0,88,0.00,,,0.00,WeatherCatV1.20B785,2013-07-15 01:07:00,
2013-07-15 02:12:00,59.9,56.3,30.19,West,266,1.0,2.0,88,0.00,,,0.00,WeatherCatV1.20B785,2013-07-15 01:12:00,
2013-07-15 02:17:00,59.9,56.3,30.19,West,280,2.0,2.0,88,0.00,,,0.00,WeatherCatV1.20B785,2013-07-15 01:17:00,
2013-07-15 02:22:00,59.9,56.3,30.19,WSW,250,2.0,2.0,88,0.00,,,0.00,WeatherCatV1.20B785,2013-07-15 01:22:00,
2013-07-15 02:27:00,59.9,56.3,30.19,WSW,247,2.0,4.0,88,0.00,,,0.00,WeatherCatV1.20B785,2013-07-15 01:27:00,
2013-07-15 02:32:00,59.8,56.5,30.19,SW,217,1.0,2.0,89,0.00,,,0.00,WeatherCatV1.20B785,2013-07-15 01:32:00,
2013-07-15 02:37:00,59.8,56.5,30.19,WSW,242,2.0,2.0,89,0.00,,,0.00,WeatherCatV1.20B785,2013-07-15 01:37:00,
2013-07-15 02:42:00,59.8,56.5,30.19,SW,226,3.0,4.0,89,0.00,,,0.00,WeatherCatV1.20B785,2013-07-15 01:42:00,
2013-07-15 02:47:00,59.9,56.7,30.19,SW,232,2.0,3.0,89,0.00,,,0.00,WeatherCatV1.20B785,2013-07-15 01:47:00,
2013-07-15 02:52:00,59.8,56.5,30.19,WSW,242,2.0,2.0,89,0.00,,,0.00,WeatherCatV1.20B785,2013-07-15 01:52:00,
2013-07-15 02:57:00,59.9,56.7,30.19,West,266,2.0,3.0,89,0.00,,,0.00,WeatherCatV1.20B785,2013-07-15 01:57:00,
2013-07-15 03:02:00,59.9,56.3,30.19,West,269,2.0,2.0,88,0.00,,,0.00,WeatherCatV1.20B785,2013-07-15 02:02:00,
2013-07-15 03:07:00,60.0,56.4,30.19,West,277,2.0,2.0,88,0.00,,,0.00,WeatherCatV1.20B785,2013-07-15 02:07:00,
2013-07-15 03:12:00,59.9,56.3,30.19,WSW,246,1.0,2.0,88,0.00,,,0.00,WeatherCatV1.20B785,2013-07-15 02:12:00,
2013-07-15 03:17:00,60.0,56.4,30.18,WSW,247,1.0,1.0,88,0.00,,,0.00,WeatherCatV1.20B785,2013-07-15 02:17:00,
2013-07-15 03:22:00,60.0,56.4,30.18,SW,236,2.0,2.0,88,0.00,,,0.00,WeatherCatV1.20B785,2013-07-15 02:22:00,
2013-07-15 03:27:00,59.9,56.3,30.18,SW,236,2.0,2.0,88,0.00,,,0.00,WeatherCatV1.20B785,2013-07-15 02:27:00,
2013-07-15 03:32:00,59.9,56.3,30.18,SW,236,1.0,1.0,88,0.00,,,0.00,WeatherCatV1.20B785,2013-07-15 02:32:00,
2013-07-15 03:37:00,59.9,56.3,30.18,SW,232,1.0,4.0,88,0.00,,,0.00,WeatherCatV1.20B785,2013-07-15 02:37:00,
2013-07-15 03:42:00,59.9,56.3,30.18,WSW,257,2.0,2.0,88,0.00,,,0.00,WeatherCatV1.20B785,2013-07-15 02:42:00,
2013-07-15 03:47:00,59.9,56.3,30.18,WSW,252,1.0,2.0,88,0.00,,,0.00,WeatherCatV1.20B785,2013-07-15 02:47:00,
2013-07-15 03:52:00,59.9,56.3,30.18,WSW,255,0.0,1.0,88,0.00,,,0.00,WeatherCatV1.20B785,2013-07-15 02:52:00,
2013-07-15 03:57:00,59.9,56.3,30.18,West,272,1.0,2.0,88,0.00,,,0.00,WeatherCatV1.20B785,2013-07-15 02:57:00,
2013-07-15 04:02:00,59.9,56.3,30.18,West,267,1.0,3.0,88,0.00,,,0.00,WeatherCatV1.20B785,2013-07-15 03:02:00,
2013-07-15 04:07:00,59.9,56.3,30.18,West,274,1.0,2.0,88,0.00,,,0.00,WeatherCatV1.20B785,2013-07-15 03:07:00,
2013-07-15 04:12:00,59.9,56.3,30.17,West,279,1.0,2.0,88,0.00,,,0.00,WeatherCatV1.20B785,2013-07-15 03:12:00,
2013-07-15 04:17:00,59.9,56.3,30.17,West,259,1.0,2.0,88,0.00,,,0.00,WeatherCatV1.20B785,2013-07-15 03:17:00,
2013-07-15 04:22:00,59.9,56.3,30.18,West,263,0.0,1.0,88,0.00,,,0.00,WeatherCatV1.20B785,2013-07-15 03:22:00,
2013-07-15 04:27:00,59.9,56.7,30.18,West,269,1.0,1.0,89,0.00,,,0.00,WeatherCatV1.20B785,2013-07-15 03:27:00,
2013-07-15 04:32:00,59.8,56.5,30.17,West,277,0.0,1.0,89,0.00,,,0.00,WeatherCatV1.20B785,2013-07-15 03:32:00,
2013-07-15 04:37:00,59.7,56.5,30.17,North,6,2.0,4.0,89,0.00,,,0.00,WeatherCatV1.20B785,2013-07-15 03:37:00,
2013-07-15 04:42:00,59.6,56.3,30.17,NW,314,1.0,2.0,89,0.00,,,0.00,WeatherCatV1.20B785,2013-07-15 03:42:00,
2013-07-15 04:47:00,59.6,56.3,30.17,West,266,0.0,2.0,89,0.00,,,0.00,WeatherCatV1.20B785,2013-07-15 03:47:00,
2013-07-15 04:52:00,59.6,56.0,30.17,WNW,283,2.0,2.0,88,0.00,,,0.00,WeatherCatV1.20B785,2013-07-15 03:52:00,
2013-07-15 04:57:00,59.5,56.2,30.17,WNW,289,0.0,1.0,89,0.00,,,0.00,WeatherCatV1.20B785,2013-07-15 03:57:00,
2013-07-15 05:01:00,59.5,56.2,30.17,West,271,2.0,3.0,89,0.00,,,0.00,WeatherCatV1.20B785,2013-07-15 04:01:00,
2013-07-15 05:06:00,59.5,56.2,30.17,West,276,1.0,1.0,89,0.00,,,0.00,WeatherCatV1.20B785,2013-07-15 04:06:00,
2013-07-15 05:11:00,59.4,55.8,30.17,West,281,1.0,1.0,88,0.00,,,0.00,WeatherCatV1.20B785,2013-07-15 04:11:00,
2013-07-15 05:16:00,59.3,56.0,30.17,WNW,293,1.0,1.0,89,0.00,,,0.00,WeatherCatV1.20B785,2013-07-15 04:16:00,
2013-07-15 05:21:00,59.2,56.0,30.17,NNW,335,1.0,2.0,89,0.00,,,0.00,WeatherCatV1.20B785,2013-07-15 04:21:00,
2013-07-15 05:26:00,59.1,55.9,30.17,West,278,0.0,2.0,89,0.00,,,0.00,WeatherCatV1.20B785,2013-07-15 04:26:00,
2013-07-15 05:31:00,59.0,55.8,30.17,NW,307,0.0,1.0,89,0.00,,,0.00,WeatherCatV1.20B785,2013-07-15 04:31:00,
2013-07-15 05:36:00,59.0,55.8,30.17,NW,309,1.0,1.0,89,0.00,,,0.00,WeatherCatV1.20B785,2013-07-15 04:36:00,
2013-07-15 05:41:00,58.8,55.6,30.17,NW,319,0.0,1.0,89,0.00,,,0.00,WeatherCatV1.20B785,2013-07-15 04:41:00,
2013-07-15 05:46:00,58.8,55.2,30.17,WNW,291,1.0,2.0,88,0.00,,,0.00,WeatherCatV1.20B785,2013-07-15 04:46:00,
2013-07-15 05:51:00,59.0,55.1,30.17,WNW,302,1.0,1.0,87,0.00,,,0.00,WeatherCatV1.20B785,2013-07-15 04:51:00,
2013-07-15 05:56:00,59.0,55.1,30.17,WNW,297,1.0,3.0,87,0.00,,,0.00,WeatherCatV1.20B785,2013-07-15 04:56:00,
2013-07-15 06:01:00,59.0,54.8,30.17,WNW,297,0.0,1.0,86,0.00,,,0.00,WeatherCatV1.20B785,2013-07-15 05:01:00,
2013-07-15 06:06:00,59.0,54.8,30.17,WNW,293,1.0,1.0,86,0.00,,,0.00,WeatherCatV1.20B785,2013-07-15 05:06:00,
2013-07-15 06:11:00,58.9,55.0,30.17,WNW,287,1.0,2.0,87,0.00,,,0.00,WeatherCatV1.20B785,2013-07-15 05:11:00,
2013-07-15 06:16:00,58.8,54.9,30.17,WNW,297,1.0,2.0,87,0.00,,,0.00,WeatherCatV1.20B785,2013-07-15 05:16:00,
2013-07-15 06:21:00,58.8,54.9,30.17,WNW,293,0.0,1.0,87,0.00,,,0.00,WeatherCatV1.20B785,2013-07-15 05:21:00,
2013-07-15 06:26:00,58.8,54.6,30.18,WNW,285,0.0,1.0,86,0.00,,,0.00,WeatherCatV1.20B785,2013-07-15 05:26:00,
2013-07-15 06:31:00,58.9,54.7,30.18,West,281,0.0,1.0,86,0.00,,,0.00,WeatherCatV1.20B785,2013-07-15 05:31:00,
2013-07-15 06:36:00,58.9,54.4,30.17,NNW,329,1.0,2.0,85,0.00,,,0.00,WeatherCatV1.20B785,2013-07-15 05:36:00,
2013-07-15 06:41:00,59.0,54.5,30.17,WNW,300,1.0,2.0,85,0.00,,,0.00,WeatherCatV1.20B785,2013-07-15 05:41:00,
2013-07-15 06:46:00,59.0,54.5,30.17,WNW,290,1.0,1.0,85,0.00,,,0.00,WeatherCatV1.20B785,2013-07-15 05:46:00,
2013-07-15 06:51:00,59.0,54.5,30.17,WNW,297,1.0,2.0,85,0.00,,,0.00,WeatherCatV1.20B785,2013-07-15 05:51:00,
2013-07-15 06:56:00,59.0,54.5,30.17,WNW,302,0.0,1.0,85,0.00,,,0.00,WeatherCatV1.20B785,2013-07-15 05:56:00,
2013-07-15 07:01:00,59.0,54.5,30.17,NW,314,0.0,2.0,85,0.00,,,0.00,WeatherCatV1.20B785,2013-07-15 06:01:00,
2013-07-15 07:06:00,59.1,54.6,30.17,NW,305,0.0,2.0,85,0.00,,,0.00,WeatherCatV1.20B785,2013-07-15 06:06:00,
2013-07-15 07:10:00,59.1,54.3,30.17,WNW,287,1.0,3.0,84,0.00,,,0.00,WeatherCatV1.20B785,2013-07-15 06:10:00,
2013-07-15 07:15:00,59.2,53.7,30.17,NNW,330,2.0,3.0,82,0.00,,,0.00,WeatherCatV1.20B785,2013-07-15 06:15:00,
2013-07-15 07:20:00,59.8,53.6,30.17,West,263,4.0,6.0,80,0.00,,,0.00,WeatherCatV1.20B785,2013-07-15 06:20:00,
2013-07-15 07:25:00,60.2,54.0,30.17,WNW,299,3.0,3.0,80,0.00,,,0.00,WeatherCatV1.20B785,2013-07-15 06:25:00,
2013-07-15 07:30:00,60.3,54.1,30.17,West,277,1.0,2.0,80,0.00,,,0.00,WeatherCatV1.20B785,2013-07-15 06:30:00,
2013-07-15 07:35:00,60.2,54.3,30.17,West,274,2.0,2.0,81,0.00,,,0.00,WeatherCatV1.20B785,2013-07-15 06:35:00,
2013-07-15 07:40:00,60.1,53.9,30.17,WNW,283,2.0,3.0,80,0.00,,,0.00,WeatherCatV1.20B785,2013-07-15 06:40:00,
2013-07-15 07:45:00,60.2,54.3,30.17,WNW,295,1.0,1.0,81,0.00,,,0.00,WeatherCatV1.20B785,2013-07-15 06:45:00,
2013-07-15 07:50:00,60.2,54.3,30.17,NNW,342,0.0,1.0,81,0.00,,,0.00,WeatherCatV1.20B785,2013-07-15 06:50:00,
2013-07-15 07:55:00,60.2,54.3,30.17,NNW,341,1.0,2.0,81,0.00,,,0.00,WeatherCatV1.20B785,2013-07-15 06:55:00,
2013-07-15 08:00:00,60.2,54.3,30.17,West,276,0.0,2.0,81,0.00,,,0.00,WeatherCatV1.20B785,2013-07-15 07:00:00,
2013-07-15 08:05:00,60.3,54.1,30.17,West,271,2.0,4.0,80,0.00,,,0.00,WeatherCatV1.20B785,2013-07-15 07:05:00,
2013-07-15 08:10:00,60.6,54.4,30.18,West,276,1.0,3.0,80,0.00,,,0.00,WeatherCatV1.20B785,2013-07-15 07:10:00,
2013-07-15 08:15:00,60.8,54.2,30.18,West,276,3.0,5.0,79,0.00,,,0.00,WeatherCatV1.20B785,2013-07-15 07:15:00,
2013-07-15 08:20:00,60.9,54.0,30.18,West,276,4.0,5.0,78,0.00,,,0.00,WeatherCatV1.20B785,2013-07-15 07:20:00,
2013-07-15 08:25:00,60.9,54.0,30.18,WNW,287,3.0,5.0,78,0.00,,,0.00,WeatherCatV1.20B785,2013-07-15 07:25:00,
2013-07-15 08:30:00,61.1,54.5,30.18,SW,236,4.0,5.0,79,0.00,,,0.00,WeatherCatV1.20B785,2013-07-15 07:30:00,
2013-07-15 08:35:00,61.2,54.3,30.18,West,276,2.0,5.0,78,0.00,,,0.00,WeatherCatV1.20B785,2013-07-15 07:35:00,
2013-07-15 08:40:00,61.3,54.0,30.18,SW,234,4.0,5.0,77,0.00,,,0.00,WeatherCatV1.20B785,2013-07-15 07:40:00,
2013-07-15 08:45:00,61.3,53.7,30.18,SW,224,2.0,6.0,76,0.00,,,0.00,WeatherCatV1.20B785,2013-07-15 07:45:00,
2013-07-15 08:50:00,61.4,53.8,30.18,WSW,247,4.0,6.0,76,0.00,,,0.00,WeatherCatV1.20B785,2013-07-15 07:50:00,
2013-07-15 08:55:00,61.5,53.5,30.19,WSW,248,6.0,7.0,75,0.00,,,0.00,WeatherCatV1.20B785,2013-07-15 07:55:00,
2013-07-15 09:00:00,61.5,53.5,30.19,SW,225,6.0,8.0,75,0.00,,,0.00,WeatherCatV1.20B785,2013-07-15 08:00:00,
2013-07-15 09:05:00,61.5,53.5,30.19,West,264,5.0,7.0,75,0.00,,,0.00,WeatherCatV1.20B785,2013-07-15 08:05:00,
2013-07-15 09:10:00,61.5,53.5,30.19,WSW,242,4.0,7.0,75,0.00,,,0.00,WeatherCatV1.20B785,2013-07-15 08:10:00,
2013-07-15 09:15:00,61.5,53.1,30.19,WSW,246,3.0,7.0,74,0.00,,,0.00,WeatherCatV1.20B785,2013-07-15 08:15:00,
2013-07-15 09:20:00,61.6,53.2,30.19,West,264,6.0,7.0,74,0.00,,,0.00,WeatherCatV1.20B785,2013-07-15 08:20:00,
2013-07-15 09:25:00,61.7,53.3,30.19,WNW,284,4.0,9.0,74,0.00,,,0.00,WeatherCatV1.20B785,2013-07-15 08:25:00,
2013-07-15 09:28:00,61.7,53.3,30.19,West,277,6.0,6.0,74,0.00,,,0.00,WeatherCatV1.20B785,2013-07-15 08:28:00,
2013-07-15 09:33:00,61.8,53.8,30.19,West,261,4.0,5.0,75,0.00,,,0.00,WeatherCatV1.20B785,2013-07-15 08:33:00,
2013-07-15 09:38:00,61.8,53.0,30.19,West,264,6.0,9.0,73,0.00,,,0.00,WeatherCatV1.20B785,2013-07-15 08:38:00,
2013-07-15 09:43:00,61.7,53.3,30.19,WSW,257,5.0,7.0,74,0.00,,,0.00,WeatherCatV1.20B785,2013-07-15 08:43:00,
2013-07-15 09:48:00,61.8,53.4,30.19,West,262,6.0,6.0,74,0.00,,,0.00,WeatherCatV1.20B785,2013-07-15 08:48:00,
2013-07-15 09:53:00,61.9,53.5,30.19,WSW,249,5.0,7.0,74,0.00,,,0.00,WeatherCatV1.20B785,2013-07-15 08:53:00,
2013-07-15 09:58:00,62.0,54.0,30.19,WNW,284,5.0,5.0,75,0.00,,,0.00,WeatherCatV1.20B785,2013-07-15 08:58:00,
2013-07-15 10:02:00,62.0,54.0,30.19,SW,232,4.0,5.0,75,0.00,,,0.00,WeatherCatV1.20B785,2013-07-15 09:02:00,
2013-07-15 10:07:00,61.9,53.5,30.19,WSW,257,4.0,8.0,74,0.00,,,0.00,WeatherCatV1.20B785,2013-07-15 09:07:00,
2013-07-15 10:12:00,62.0,53.6,30.19,WSW,248,6.0,7.0,74,0.00,,,0.00,WeatherCatV1.20B785,2013-07-15 09:12:00,
2013-07-15 10:17:00,62.0,54.0,30.19,WSW,248,3.0,5.0,75,0.00,,,0.00,WeatherCatV1.20B785,2013-07-15 09:17:00,
2013-07-15 10:22:00,62.3,53.9,30.19,SW,222,4.0,6.0,74,0.00,,,0.00,WeatherCatV1.20B785,2013-07-15 09:22:00,
2013-07-15 10:27:00,62.4,54.0,30.19,WSW,240,3.0,7.0,74,0.00,,,0.00,WeatherCatV1.20B785,2013-07-15 09:27:00,
2013-07-15 10:32:00,62.4,54.4,30.19,SW,236,5.0,8.0,75,0.00,,,0.00,WeatherCatV1.20B785,2013-07-15 09:32:00,
2013-07-15 10:37:00,62.7,54.7,30.19,WSW,247,5.0,7.0,75,0.00,,,0.00,WeatherCatV1.20B785,2013-07-15 09:37:00,
2013-07-15 10:42:00,62.6,54.2,30.19,West,278,6.0,8.0,74,0.00,,,0.00,WeatherCatV1.20B785,2013-07-15 09:42:00,
2013-07-15 10:47:00,62.6,53.8,30.19,SW,219,7.0,8.0,73,0.00,,,0.00,WeatherCatV1.20B785,2013-07-15 09:47:00,
2013-07-15 10:52:00,62.8,54.4,30.19,South,186,3.0,8.0,74,0.00,,,0.00,WeatherCatV1.20B785,2013-07-15 09:52:00,
2013-07-15 10:57:00,63.0,54.2,30.19,WSW,245,5.0,8.0,73,0.00,,,0.00,WeatherCatV1.20B785,2013-07-15 09:57:00,
2013-07-15 11:02:00,63.0,54.6,30.19,SW,217,4.0,6.0,74,0.00,,,0.00,WeatherCatV1.20B785,2013-07-15 10:02:00,
2013-07-15 11:07:00,63.0,54.6,30.19,SW,219,5.0,7.0,74,0.00,,,0.00,WeatherCatV1.20B785,2013-07-15 10:07:00,
2013-07-15 11:12:00,63.1,54.7,30.19,SSW,195,7.0,7.0,74,0.00,,,0.00,WeatherCatV1.20B785,2013-07-15 10:12:00,
2013-07-15 11:17:00,63.1,54.7,30.19,WSW,257,5.0,6.0,74,0.00,,,0.00,WeatherCatV1.20B785,2013-07-15 10:17:00,
2013-07-15 11:22:00,63.3,55.2,30.19,SSW,212,6.0,7.0,75,0.00,,,0.00,WeatherCatV1.20B785,2013-07-15 10:22:00,
2013-07-15 11:27:00,63.4,55.3,30.19,SSW,198,7.0,9.0,75,0.00,,,0.00,WeatherCatV1.20B785,2013-07-15 10:27:00,
2013-07-15 11:32:00,63.4,55.7,30.19,SSE,148,3.0,7.0,76,0.00,,,0.00,WeatherCatV1.20B785,2013-07-15 10:32:00,
2013-07-15 11:37:00,63.6,55.5,30.19,SW,217,4.0,7.0,75,0.00,,,0.00,WeatherCatV1.20B785,2013-07-15 10:37:00,
2013-07-15 11:42:00,63.7,55.6,30.19,SSW,200,11.0,11.0,75,0.00,,,0.00,WeatherCatV1.20B785,2013-07-15 10:42:00,
2013-07-15 11:47:00,63.7,55.6,30.19,SW,236,5.0,9.0,75,0.00,,,0.00,WeatherCatV1.20B785,2013-07-15 10:47:00,
2013-07-15 11:52:00,63.7,55.2,30.19,SW,222,9.0,11.0,74,0.00,,,0.00,WeatherCatV1.20B785,2013-07-15 10:52:00,
2013-07-15 11:57:00,63.9,55.8,30.19,SSW,203,6.0,12.0,75,0.00,,,0.00,WeatherCatV1.20B785,2013-07-15 10:57:00,
2013-07-15 12:02:00,64.0,55.5,30.19,SSW,196,9.0,9.0,74,0.00,,,0.00,WeatherCatV1.20B785,2013-07-15 11:02:00,
2013-07-15 12:07:00,64.1,55.6,30.19,SSW,212,9.0,10.0,74,0.00,,,0.00,WeatherCatV1.20B785,2013-07-15 11:07:00,
2013-07-15 12:12:00,64.4,55.9,30.19,South,191,3.0,7.0,74,0.00,,,0.00,WeatherCatV1.20B785,2013-07-15 11:12:00,
2013-07-15 12:17:00,64.6,55.7,30.19,SSW,201,8.0,10.0,73,0.00,,,0.00,WeatherCatV1.20B785,2013-07-15 11:17:00,
2013-07-15 12:22:00,64.3,55.5,30.19,West,259,9.0,11.0,73,0.00,,,0.00,WeatherCatV1.20B785,2013-07-15 11:22:00,
2013-07-15 12:27:00,64.3,55.1,30.19,WSW,252,6.0,10.0,72,0.00,,,0.00,WeatherCatV1.20B785,2013-07-15 11:27:00,
2013-07-15 12:32:00,64.6,54.6,30.19,SW,232,9.0,12.0,70,0.00,,,0.00,WeatherCatV1.20B785,2013-07-15 11:32:00,
2013-07-15 12:37:00,64.5,54.9,30.19,SW,217,7.0,12.0,71,0.00,,,0.00,WeatherCatV1.20B785,2013-07-15 11:37:00,
2013-07-15 12:42:00,64.3,55.1,30.19,SW,236,10.0,13.0,72,0.00,,,0.00,WeatherCatV1.20B785,2013-07-15 11:42:00,
2013-07-15 12:47:00,64.2,55.7,30.19,West,267,4.0,12.0,74,0.00,,,0.00,WeatherCatV1.20B785,2013-07-15 11:47:00,
2013-07-15 12:52:00,64.3,55.8,30.19,WSW,246,8.0,11.0,74,0.00,,,0.00,WeatherCatV1.20B785,2013-07-15 11:52:00,
2013-07-15 12:57:00,64.6,56.1,30.19,SW,236,10.0,10.0,74,0.00,,,0.00,WeatherCatV1.20B785,2013-07-15 11:57:00,
2013-07-15 13:02:00,64.8,56.3,30.18,SW,236,7.0,10.0,74,0.00,,,0.00,WeatherCatV1.20B785,2013-07-15 12:02:00,
2013-07-15 13:07:00,65.0,56.5,30.19,SW,215,9.0,11.0,74,0.00,,,0.00,WeatherCatV1.20B785,2013-07-15 12:07:00,
2013-07-15 13:12:00,65.1,55.8,30.18,SW,236,6.0,11.0,72,0.00,,,0.00,WeatherCatV1.20B785,2013-07-15 12:12:00,
2013-07-15 13:17:00,65.2,55.5,30.18,SW,236,8.0,11.0,71,0.00,,,0.00,WeatherCatV1.20B785,2013-07-15 12:17:00,
2013-07-15 13:22:00,65.0,55.4,30.18,SW,224,9.0,14.0,71,0.00,,,0.00,WeatherCatV1.20B785,2013-07-15 12:22:00,
2013-07-15 13:27:00,65.0,55.4,30.18,SW,236,8.0,10.0,71,0.00,,,0.00,WeatherCatV1.20B785,2013-07-15 12:27:00,
2013-07-15 13:32:00,65.1,55.5,30.18,SW,214,7.0,12.0,71,0.00,,,0.00,WeatherCatV1.20B785,2013-07-15 12:32:00,
2013-07-15 13:37:00,65.0,55.8,30.18,SW,214,11.0,15.0,72,0.00,,,0.00,WeatherCatV1.20B785,2013-07-15 12:37:00,
2013-07-15 13:42:00,65.0,55.8,30.18,West,274,9.0,13.0,72,0.00,,,0.00,WeatherCatV1.20B785,2013-07-15 12:42:00,
2013-07-15 13:47:00,65.0,55.8,30.18,WSW,241,9.0,13.0,72,0.00,,,0.00,WeatherCatV1.20B785,2013-07-15 12:47:00,
2013-07-15 13:52:00,65.0,55.8,30.18,WSW,245,6.0,13.0,72,0.00,,,0.00,WeatherCatV1.20B785,2013-07-15 12:52:00,
2013-07-15 13:57:00,65.2,55.9,30.18,SW,214,7.0,10.0,72,0.00,,,0.00,WeatherCatV1.20B785,2013-07-15 12:57:00,
2013-07-15 14:02:00,65.2,55.9,30.18,SW,224,8.0,10.0,72,0.00,,,0.00,WeatherCatV1.20B785,2013-07-15 13:02:00,
2013-07-15 14:07:00,65.5,56.2,30.18,WSW,252,7.0,10.0,72,0.00,,,0.00,WeatherCatV1.20B785,2013-07-15 13:07:00,
2013-07-15 14:12:00,65.4,55.7,30.18,South,179,9.0,14.0,71,0.00,,,0.00,WeatherCatV1.20B785,2013-07-15 13:12:00,
2013-07-15 14:17:00,65.2,55.5,30.18,SW,222,10.0,12.0,71,0.00,,,0.00,WeatherCatV1.20B785,2013-07-15 13:17:00,
2013-07-15 14:22:00,65.4,56.1,30.18,SW,226,12.0,12.0,72,0.00,,,0.00,WeatherCatV1.20B785,2013-07-15 13:22:00,
2013-07-15 14:27:00,65.4,56.5,30.18,SSW,201,5.0,10.0,73,0.00,,,0.00,WeatherCatV1.20B785,2013-07-15 13:27:00,
2013-07-15 14:32:00,65.4,56.1,30.18,SW,236,9.0,13.0,72,0.00,,,0.00,WeatherCatV1.20B785,2013-07-15 13:32:00,
2013-07-15 14:37:00,65.1,55.5,30.18,WSW,246,9.0,13.0,71,0.00,,,0.00,WeatherCatV1.20B785,2013-07-15 13:37:00,
2013-07-15 14:42:00,65.2,55.9,30.18,SW,222,7.0,11.0,72,0.00,,,0.00,WeatherCatV1.20B785,2013-07-15 13:42:00,
2013-07-15 14:47:00,65.4,55.7,30.18,West,263,8.0,12.0,71,0.00,,,0.00,WeatherCatV1.20B785,2013-07-15 13:47:00,
2013-07-15 14:52:00,65.4,56.5,30.18,WSW,245,10.0,11.0,73,0.00,,,0.00,WeatherCatV1.20B785,2013-07-15 13:52:00,
2013-07-15 14:57:00,65.3,56.4,30.18,SW,217,6.0,12.0,73,0.00,,,0.00,WeatherCatV1.20B785,2013-07-15 13:57:00,
2013-07-15 15:02:00,65.2,55.9,30.18,SW,235,12.0,13.0,72,0.00,,,0.00,WeatherCatV1.20B785,2013-07-15 14:02:00,
2013-07-15 15:07:00,65.0,55.8,30.18,SW,219,10.0,13.0,72,0.00,,,0.00,WeatherCatV1.20B785,2013-07-15 14:07:00,
2013-07-15 15:12:00,65.2,55.9,30.18,WSW,245,10.0,11.0,72,0.00,,,0.00,WeatherCatV1.20B785,2013-07-15 14:12:00,
2013-07-15 15:17:00,65.2,56.7,30.18,SW,236,5.0,11.0,74,0.00,,,0.00,WeatherCatV1.20B785,2013-07-15 14:17:00,
2013-07-15 15:22:00,65.1,57.0,30.18,SW,232,7.0,10.0,75,0.00,,,0.00,WeatherCatV1.20B785,2013-07-15 14:22:00,
2013-07-15 15:27:00,65.0,56.9,30.18,SW,231,8.0,10.0,75,0.00,,,0.00,WeatherCatV1.20B785,2013-07-15 14:27:00,
2013-07-15 15:32:00,65.0,56.5,30.18,West,274,4.0,12.0,74,0.00,,,0.00,WeatherCatV1.20B785,2013-07-15 14:32:00,
2013-07-15 15:37:00,65.0,57.2,30.18,SW,233,6.0,10.0,76,0.00,,,0.00,WeatherCatV1.20B785,2013-07-15 14:37:00,
2013-07-15 15:42:00,65.2,57.4,30.18,West,259,10.0,11.0,76,0.00,,,0.00,WeatherCatV1.20B785,2013-07-15 14:42:00,
2013-07-15 15:47:00,65.2,56.7,30.18,West,278,3.0,10.0,74,0.00,,,0.00,WeatherCatV1.20B785,2013-07-15 14:47:00,
2013-07-15 15:52:00,65.0,56.5,30.18,WSW,245,7.0,10.0,74,0.00,,,0.00,WeatherCatV1.20B785,2013-07-15 14:52:00,
2013-07-15 15:57:00,65.0,56.1,30.18,West,260,5.0,10.0,73,0.00,,,0.00,WeatherCatV1.20B785,2013-07-15 14:57:00,
2013-07-15 16:02:00,65.1,57.0,30.18,WSW,240,7.0,11.0,75,0.00,,,0.00,WeatherCatV1.20B785,2013-07-15 15:02:00,
2013-07-15 16:07:00,65.0,57.2,30.18,SW,233,10.0,10.0,76,0.00,,,0.00,WeatherCatV1.20B785,2013-07-15 15:07:00,
2013-07-15 16:12:00,65.0,57.6,30.18,SSW,203,4.0,8.0,77,0.00,,,0.00,WeatherCatV1.20B785,2013-07-15 15:12:00,
2013-07-15 16:17:00,65.2,57.8,30.18,SSW,193,6.0,10.0,77,0.00,,,0.00,WeatherCatV1.20B785,2013-07-15 15:17:00,
2013-07-15 16:22:00,65.0,57.6,30.18,West,259,9.0,9.0,77,0.00,,,0.00,WeatherCatV1.20B785,2013-07-15 15:22:00,
2013-07-15 16:26:00,64.9,57.2,30.18,SSW,208,6.0,10.0,76,0.00,,,0.00,WeatherCatV1.20B785,2013-07-15 15:26:00,
2013-07-15 16:31:00,64.9,57.5,30.18,SW,219,10.0,10.0,77,0.00,,,0.00,WeatherCatV1.20B785,2013-07-15 15:31:00,
2013-07-15 16:36:00,64.8,57.4,30.18,SSW,200,8.0,11.0,77,0.00,,,0.00,WeatherCatV1.20B785,2013-07-15 15:36:00,
2013-07-15 16:41:00,64.8,57.4,30.18,SW,215,5.0,11.0,77,0.00,,,0.00,WeatherCatV1.20B785,2013-07-15 15:41:00,
2013-07-15 16:46:00,64.7,57.7,30.18,SSW,207,7.0,9.0,78,0.00,,,0.00,WeatherCatV1.20B785,2013-07-15 15:46:00,
2013-07-15 16:51:00,64.7,57.7,30.18,SSW,205,7.0,8.0,78,0.00,,,0.00,WeatherCatV1.20B785,2013-07-15 15:51:00,
2013-07-15 16:56:00,65.0,58.0,30.18,SW,215,7.0,10.0,78,0.00,,,0.00,WeatherCatV1.20B785,2013-07-15 15:56:00,
2013-07-15 17:01:00,65.1,57.7,30.18,SW,216,6.0,9.0,77,0.00,,,0.00,WeatherCatV1.20B785,2013-07-15 16:01:00,
2013-07-15 17:06:00,65.2,57.4,30.18,SW,231,7.0,10.0,76,0.00,,,0.00,WeatherCatV1.20B785,2013-07-15 16:06:00,
2013-07-15 17:11:00,65.3,57.2,30.18,SW,231,7.0,10.0,75,0.00,,,0.00,WeatherCatV1.20B785,2013-07-15 16:11:00,
2013-07-15 17:16:00,65.3,56.8,30.18,SW,234,8.0,10.0,74,0.00,,,0.00,WeatherCatV1.20B785,2013-07-15 16:16:00,
2013-07-15 17:21:00,65.5,57.0,30.18,SW,231,9.0,9.0,74,0.00,,,0.00,WeatherCatV1.20B785,2013-07-15 16:21:00,
2013-07-15 17:26:00,65.7,56.4,30.18,WSW,252,5.0,11.0,72,0.00,,,0.00,WeatherCatV1.20B785,2013-07-15 16:26:00,
2013-07-15 17:31:00,65.4,56.5,30.18,SW,235,8.0,11.0,73,0.00,,,0.00,WeatherCatV1.20B785,2013-07-15 16:31:00,
2013-07-15 17:36:00,65.3,56.0,30.18,WSW,256,7.0,12.0,72,0.00,,,0.00,WeatherCatV1.20B785,2013-07-15 16:36:00,
2013-07-15 17:41:00,65.4,55.3,30.18,WSW,252,5.0,10.0,70,0.00,,,0.00,WeatherCatV1.20B785,2013-07-15 16:41:00,
2013-07-15 17:46:00,65.4,55.3,30.17,WSW,239,13.0,13.0,70,0.00,,,0.00,WeatherCatV1.20B785,2013-07-15 16:46:00,
2013-07-15 17:51:00,65.1,55.1,30.18,SSW,210,7.0,11.0,70,0.00,,,0.00,WeatherCatV1.20B785,2013-07-15 16:51:00,
2013-07-15 17:56:00,65.1,55.1,30.17,SW,236,8.0,12.0,70,0.00,,,0.00,WeatherCatV1.20B785,2013-07-15 16:56:00,
2013-07-15 18:01:00,65.1,55.5,30.17,South,190,8.0,11.0,71,0.00,,,0.00,WeatherCatV1.20B785,2013-07-15 17:01:00,
2013-07-15 18:06:00,65.2,55.5,30.17,SW,236,6.0,10.0,71,0.00,,,0.00,WeatherCatV1.20B785,2013-07-15 17:06:00,
2013-07-15 18:11:00,65.1,55.8,30.17,West,271,6.0,10.0,72,0.00,,,0.00,WeatherCatV1.20B785,2013-07-15 17:11:00,
2013-07-15 18:16:00,65.0,56.1,30.17,SW,224,12.0,12.0,73,0.00,,,0.00,WeatherCatV1.20B785,2013-07-15 17:16:00,
2013-07-15 18:21:00,65.0,55.8,30.17,SW,229,6.0,10.0,72,0.00,,,0.00,WeatherCatV1.20B785,2013-07-15 17:21:00,
2013-07-15 18:26:00,64.9,56.0,30.18,West,272,9.0,11.0,73,0.00,,,0.00,WeatherCatV1.20B785,2013-07-15 17:26:00,
2013-07-15 18:31:00,65.0,56.1,30.17,SSW,201,8.0,12.0,73,0.00,,,0.00,WeatherCatV1.20B785,2013-07-15 17:31:00,
2013-07-15 18:36:00,64.9,56.4,30.17,SSW,208,7.0,12.0,74,0.00,,,0.00,WeatherCatV1.20B785,2013-07-15 17:36:00,
2013-07-15 18:41:00,65.0,56.5,30.17,SSW,195,8.0,10.0,74,0.00,,,0.00,WeatherCatV1.20B785,2013-07-15 17:41:00,
2013-07-15 18:46:00,65.0,56.5,30.17,SW,229,5.0,8.0,74,0.00,,,0.00,WeatherCatV1.20B785,2013-07-15 17:46:00,
2013-07-15 18:51:00,64.8,55.9,30.17,WSW,245,8.0,11.0,73,0.00,,,0.00,WeatherCatV1.20B785,2013-07-15 17:51:00,
2013-07-15 18:56:00,64.7,55.8,30.17,WSW,256,5.0,11.0,73,0.00,,,0.00,WeatherCatV1.20B785,2013-07-15 17:56:00,
2013-07-15 19:01:00,64.8,55.9,30.17,SW,219,8.0,11.0,73,0.00,,,0.00,WeatherCatV1.20B785,2013-07-15 18:01:00,
2013-07-15 19:06:00,64.7,55.8,30.17,SW,231,9.0,9.0,73,0.00,,,0.00,WeatherCatV1.20B785,2013-07-15 18:06:00,
2013-07-15 19:11:00,64.7,55.8,30.17,SSW,201,8.0,11.0,73,0.00,,,0.00,WeatherCatV1.20B785,2013-07-15 18:11:00,
2013-07-15 19:16:00,64.7,56.2,30.17,WSW,240,6.0,8.0,74,0.00,,,0.00,WeatherCatV1.20B785,2013-07-15 18:16:00,
2013-07-15 19:21:00,64.6,55.7,30.17,SSW,205,5.0,8.0,73,0.00,,,0.00,WeatherCatV1.20B785,2013-07-15 18:21:00,
2013-07-15 19:26:00,64.6,55.7,30.17,West,259,3.0,9.0,73,0.00,,,0.00,WeatherCatV1.20B785,2013-07-15 18:26:00,
2013-07-15 19:31:00,64.5,55.3,30.17,SW,225,5.0,7.0,72,0.00,,,0.00,WeatherCatV1.20B785,2013-07-15 18:31:00,
2013-07-15 19:36:00,64.5,55.7,30.17,WSW,241,7.0,11.0,73,0.00,,,0.00,WeatherCatV1.20B785,2013-07-15 18:36:00,
2013-07-15 19:41:00,64.4,55.5,30.17,SW,236,6.0,9.0,73,0.00,,,0.00,WeatherCatV1.20B785,2013-07-15 18:41:00,
2013-07-15 19:46:00,64.3,56.2,30.17,SW,236,3.0,8.0,75,0.00,,,0.00,WeatherCatV1.20B785,2013-07-15 18:46:00,
2013-07-15 19:51:00,64.2,56.1,30.17,WSW,238,4.0,9.0,75,0.00,,,0.00,WeatherCatV1.20B785,2013-07-15 18:51:00,
2013-07-15 19:56:00,64.1,56.7,30.17,WSW,256,6.0,6.0,77,0.00,,,0.00,WeatherCatV1.20B785,2013-07-15 18:56:00,
2013-07-15 20:01:00,64.1,57.1,30.17,SW,236,5.0,7.0,78,0.00,,,0.00,WeatherCatV1.20B785,2013-07-15 19:01:00,
2013-07-15 20:06:00,64.0,57.3,30.17,West,267,5.0,7.0,79,0.00,,,0.00,WeatherCatV1.20B785,2013-07-15 19:06:00,
2013-07-15 20:11:00,64.0,57.3,30.17,SW,222,3.0,9.0,79,0.00,,,0.00,WeatherCatV1.20B785,2013-07-15 19:11:00,
2013-07-15 20:16:00,63.8,57.2,30.17,WSW,242,6.0,9.0,79,0.00,,,0.00,WeatherCatV1.20B785,2013-07-15 19:16:00,
2013-07-15 20:21:00,63.7,57.4,30.17,SW,231,6.0,10.0,80,0.00,,,0.00,WeatherCatV1.20B785,2013-07-15 19:21:00,
2013-07-15 20:26:00,63.7,57.8,30.17,SW,217,6.0,6.0,81,0.00,,,0.00,WeatherCatV1.20B785,2013-07-15 19:26:00,
2013-07-15 20:31:00,63.6,57.7,30.17,SW,226,5.0,9.0,81,0.00,,,0.00,WeatherCatV1.20B785,2013-07-15 19:31:00,
2013-07-15 20:36:00,63.5,57.6,30.17,WSW,241,6.0,8.0,81,0.00,,,0.00,WeatherCatV1.20B785,2013-07-15 19:36:00,
2013-07-15 20:41:00,63.3,57.0,30.17,WSW,243,4.0,6.0,80,0.00,,,0.00,WeatherCatV1.20B785,2013-07-15 19:41:00,
2013-07-15 20:46:00,63.3,57.0,30.17,WSW,239,4.0,8.0,80,0.00,,,0.00,WeatherCatV1.20B785,2013-07-15 19:46:00,
2013-07-15 20:51:00,63.3,57.0,30.17,SW,228,6.0,9.0,80,0.00,,,0.00,WeatherCatV1.20B785,2013-07-15 19:51:00,
2013-07-15 20:56:00,63.2,56.9,30.17,SW,219,6.0,8.0,80,0.00,,,0.00,WeatherCatV1.20B785,2013-07-15 19:56:00,
2013-07-15 21:01:00,63.2,56.9,30.17,SW,224,5.0,8.0,80,0.00,,,0.00,WeatherCatV1.20B785,2013-07-15 20:01:00,
2013-07-15 21:06:00,63.1,56.8,30.17,SW,232,12.0,12.0,80,0.00,,,0.00,WeatherCatV1.20B785,2013-07-15 20:06:00,
2013-07-15 21:11:00,63.0,57.1,30.17,WSW,249,7.0,9.0,81,0.00,,,0.00,WeatherCatV1.20B785,2013-07-15 20:11:00,
2013-07-15 21:16:00,63.1,57.2,30.17,WSW,248,6.0,10.0,81,0.00,,,0.00,WeatherCatV1.20B785,2013-07-15 20:16:00,
2013-07-15 21:21:00,63.0,57.1,30.17,SW,224,4.0,7.0,81,0.00,,,0.00,WeatherCatV1.20B785,2013-07-15 20:21:00,
2013-07-15 21:26:00,63.0,57.4,30.18,West,259,4.0,6.0,82,0.00,,,0.00,WeatherCatV1.20B785,2013-07-15 20:26:00,
2013-07-15 21:31:00,62.9,57.3,30.17,WSW,256,6.0,8.0,82,0.00,,,0.00,WeatherCatV1.20B785,2013-07-15 20:31:00,
2013-07-15 21:36:00,62.9,57.7,30.18,West,269,2.0,6.0,83,0.00,,,0.00,WeatherCatV1.20B785,2013-07-15 20:36:00,
2013-07-15 21:41:00,62.9,57.7,30.18,WSW,239,3.0,6.0,83,0.00,,,0.00,WeatherCatV1.20B785,2013-07-15 20:41:00,
2013-07-15 21:46:00,62.9,57.7,30.18,WSW,243,3.0,7.0,83,0.00,,,0.00,WeatherCatV1.20B785,2013-07-15 20:46:00,
2013-07-15 21:51:00,62.8,57.5,30.18,SW,233,3.0,8.0,83,0.00,,,0.00,WeatherCatV1.20B785,2013-07-15 20:51:00,
2013-07-15 21:56:00,62.8,57.5,30.18,SW,236,6.0,7.0,83,0.00,,,0.00,WeatherCatV1.20B785,2013-07-15 20:56:00,
2013-07-15 22:01:00,62.7,57.8,30.18,SW,228,5.0,6.0,84,0.00,,,0.00,WeatherCatV1.20B785,2013-07-15 21:01:00,
2013-07-15 22:06:00,62.7,57.8,30.18,SSW,212,4.0,5.0,84,0.00,,,0.00,WeatherCatV1.20B785,2013-07-15 21:06:00,
2013-07-15 22:11:00,62.7,57.8,30.18,West,260,4.0,8.0,84,0.00,,,0.00,WeatherCatV1.20B785,2013-07-15 21:11:00,
2013-07-15 22:16:00,62.6,57.7,30.18,SW,226,3.0,5.0,84,0.00,,,0.00,WeatherCatV1.20B785,2013-07-15 21:16:00,
2013-07-15 22:21:00,62.6,57.7,30.18,WSW,248,2.0,7.0,84,0.00,,,0.00,WeatherCatV1.20B785,2013-07-15 21:21:00,
2013-07-15 22:26:00,62.6,57.7,30.18,WSW,238,5.0,5.0,84,0.00,,,0.00,WeatherCatV1.20B785,2013-07-15 21:26:00,
2013-07-15 22:31:00,62.6,57.7,30.18,SW,226,3.0,6.0,84,0.00,,,0.00,WeatherCatV1.20B785,2013-07-15 21:31:00,
2013-07-15 22:36:00,62.5,57.6,30.18,SW,228,3.0,5.0,84,0.00,,,0.00,WeatherCatV1.20B785,2013-07-15 21:36:00,
2013-07-15 22:41:00,62.6,57.7,30.18,West,263,3.0,6.0,84,0.00,,,0.00,WeatherCatV1.20B785,2013-07-15 21:41:00,
2013-07-15 22:46:00,62.5,57.9,30.18,WNW,295,4.0,4.0,85,0.00,,,0.00,WeatherCatV1.20B785,2013-07-15 21:46:00,
2013-07-15 22:51:00,62.5,57.9,30.18,SW,222,4.0,5.0,85,0.00,,,0.00,WeatherCatV1.20B785,2013-07-15 21:51:00,
2013-07-15 22:56:00,62.5,57.9,30.18,WSW,249,4.0,8.0,85,0.00,,,0.00,WeatherCatV1.20B785,2013-07-15 21:56:00,
2013-07-15 23:01:00,62.5,58.2,30.18,SSW,211,3.0,6.0,86,0.00,,,0.00,WeatherCatV1.20B785,2013-07-15 22:01:00,
2013-07-15 23:06:00,62.5,58.2,30.18,WSW,256,2.0,6.0,86,0.00,,,0.00,WeatherCatV1.20B785,2013-07-15 22:06:00,
2013-07-15 23:11:00,62.5,58.2,30.18,SW,232,4.0,7.0,86,0.00,,,0.00,WeatherCatV1.20B785,2013-07-15 22:11:00,
2013-07-15 23:16:00,62.5,58.2,30.18,WSW,249,3.0,5.0,86,0.00,,,0.00,WeatherCatV1.20B785,2013-07-15 22:16:00,
2013-07-15 23:21:00,62.5,58.2,30.18,SW,220,4.0,6.0,86,0.00,,,0.00,WeatherCatV1.20B785,2013-07-15 22:21:00,
2013-07-15 23:26:00,62.5,58.2,30.18,SW,217,4.0,9.0,86,0.00,,,0.00,WeatherCatV1.20B785,2013-07-15 22:26:00,
2013-07-15 23:31:00,62.5,58.2,30.18,SW,232,5.0,6.0,86,0.00,,,0.00,WeatherCatV1.20B785,2013-07-15 22:31:00,
2013-07-15 23:36:00,62.5,58.6,30.18,SW,232,8.0,8.0,87,0.00,,,0.00,WeatherCatV1.20B785,2013-07-15 22:36:00,
2013-07-15 23:41:00,62.5,58.6,30.18,WSW,247,8.0,8.0,87,0.00,,,0.00,WeatherCatV1.20B785,2013-07-15 22:41:00,
2013-07-15 23:46:00,62.4,58.8,30.18,SW,229,4.0,7.0,88,0.00,,,0.00,WeatherCatV1.20B785,2013-07-15 22:46:00,
2013-07-15 23:51:00,62.4,58.8,30.18,SW,222,4.0,5.0,88,0.00,,,0.00,WeatherCatV1.20B785,2013-07-15 22:51:00,
2013-07-15 23:56:00,62.3,59.0,30.18,West,262,5.0,5.0,89,0.00,,,0.00,WeatherCatV1.20B785,2013-07-15 22:56:00,